Location: Gleizolles
(44.4833°N, 6.7667°E)
Time: 16:31:45
(UTC+00:00)

Tiros 1 - Pass Details

Date: 27 June 2024
Orbit: 624 x 656 km, 48.4° (Epoch: 13 July)

Event Time Altitude Azimuth Distance (km) Brightness Sun altitude
Rises 04:04:45 0° 289° (WNW) 2,918 10.1 1.3°
Reaches altitude 10° 04:07:18 10° 278° (W) 2,012 9.3 1.7°
Maximum altitude 04:11:16 28° 219° (SW) 1,179 8.0 2.3°
Drops below altitude 10° 04:15:15 10° 160° (SSE) 2,021 9.6 2.9°
Sets 04:17:49 0° 149° (SSE) 2,933 10.5 3.3°
